Terminal Aerodrome Forecast
Issued by NWS Rapid City, SD

Home | Current Version | Previous Version | Graphics & Text | Print | Product List | Glossary On
Versions: 1 2 3 4 5 6 7 8 9 10 11 12 13
799
FTUS43 KUNR 210215 AAA
TAFRAP
TAF AMD
KRAP 210215Z 2102/2124 15008KT P6SM BKN150
      TEMPO 2104/2106 -TSRA BKN080CB
     FM211400 34015G25KT P6SM SKC=

USA.gov is the U.S. government's official web portal to all federal, state and local government web resources and services.